Location: Alafon
(8.4500°N, 4.2333°E)
Time: 01:07:39
(UTC+00:00)

NOSS 3-1 (A) - Pass Details

Date: 05 July 2020
Orbit: 755 x 1458 km, 63.4° (Epoch: 16 June)

Event Time Altitude Azimuth Distance (km) Brightness Sun altitude
Rises 20:25:00 0° 339° (NNW) 4,342 7.6 -31.4°
Reaches altitude 10° 20:27:47 10° 341° (NNW) 3,436 6.9 -32.0°
Maximum altitude 20:36:27 77° 67° (ENE) 1,482 4.2 -33.8°
Enters shadow 20:36:35 77° 76° (ENE) 1,484 4.1 -33.8°
